GFSFLT2_925_spd_069.txt.gz
Wind_Speed
15 15 8 15 25 38 33 33 37 39 38 39 39 38 36 34 32 29 27 24 22 21 20 19 20 20 21 21 17 19 19 20
28 32 26 18 15 22 26 24 32 32 36 40 39 36 33 32 32 28 25 23 21 19 19 20 22 21 17 20 20 21 18 18
23 26 32 32 38 35 31 22 23 28 33 37 37 35 32 31 29 27 23 21 20 18 20 21 19 16 14 16 16 14 13 14
20 30 33 35 41 37 39 25 23 26 29 32 33 33 32 30 26 25 22 19 19 19 18 16 12 11 12 13 13 11 11 12
23 30 30 35 37 41 39 30 31 30 30 32 30 32 31 29 26 22 21 19 19 16 13 10 13 10 11 11 12 10 10 10
28 30 28 37 38 36 35 32 30 30 31 30 30 30 30 28 23 21 19 17 15 11 10 9 8 7 9 10 10 8 7 8
23 29 29 33 37 36 33 28 30 22 30 26 27 28 28 24 20 19 16 14 10 9 7 7 7 8 9 9 8 7 5 7
25 26 30 34 37 33 32 26 28 21 27 21 22 23 23 20 18 15 14 12 11 11 6 8 9 7 8 7 8 6 7 4
24 21 27 32 37 35 27 27 21 23 22 22 21 19 19 20 18 15 16 16 13 11 9 9 12 6 6 7 6 7 6 5
21 20 31 34 38 35 27 27 24 20 22 21 19 16 18 17 20 17 14 17 14 14 16 12 11 11 8 8 8 9 8 7
23 29 35 27 32 31 27 23 27 22 20 20 19 19 19 18 18 18 20 17 18 18 16 14 15 15 14 12 14 11 9 7
29 30 33 35 33 27 26 23 21 20 19 20 24 22 19 21 20 20 20 22 22 19 17 18 16 16 15 17 17 13 11 10
26 29 35 34 27 32 32 28 24 22 25 24 25 23 24 22 24 22 26 25 24 21 21 19 18 18 15 8 16 17 17 15
32 38 36 32 30 32 29 31 30 26 27 26 27 23 25 26 27 25 25 24 22 23 26 24 24 21 16 7 1 8 18 20
34 33 34 31 33 31 27 24 27 29 29 29 29 29 29 30 30 29 24 27 25 27 27 27 23 21 19 7 2 4 5 12
35 33 31 34 35 33 30 26 23 27 33 30 34 31 33 33 33 30 29 29 29 28 26 29 26 22 19 16 3 3 3 1
38 36 38 36 35 34 36 31 33 30 33 36 35 33 34 32 31 28 26 27 29 30 27 30 23 13 22 12 7 4 8 1
37 37 39 41 41 40 33 35 37 36 36 37 40 38 37 34 33 31 30 31 30 31 29 26 23 25 16 15 12 7 5 6
39 38 38 41 44 43 46 40 43 41 36 36 34 35 40 40 36 33 30 32 31 29 26 25 25 26 23 20 17 12 10 7
42 41 39 42 46 49 49 46 40 40 39 40 44 42 41 39 35 31 29 29 27 21 23 21 20 21 19 19 19 16 14 10

GFSFLT2_925_spd_072.txt.gz
Wind_Speed
22 23 16 14 13 15 43 32 38 46 43 42 40 39 38 36 34 31 29 27 27 25 25 26 27 23 20 21 21 20 21 21
20 19 19 17 17 17 30 30 25 37 41 39 38 37 36 35 32 30 27 26 25 23 24 23 24 24 22 20 19 18 18 19
24 20 22 22 25 34 37 34 23 29 38 39 37 36 34 33 31 28 26 25 24 24 23 20 22 24 20 19 16 17 16 17
22 26 30 35 39 42 46 43 28 27 35 37 35 34 34 32 29 27 25 24 25 25 22 18 18 18 18 16 14 14 14 14
26 31 34 38 35 40 44 39 30 28 30 30 32 33 33 32 30 28 25 24 23 19 15 16 16 14 15 16 14 13 12 12
27 28 29 33 36 32 39 40 33 33 29 28 32 33 33 32 29 27 25 23 20 16 16 15 13 13 12 14 12 11 10 10
27 27 32 33 33 37 36 35 37 38 37 32 34 35 33 30 29 26 24 20 15 15 12 11 11 13 13 10 10 10 10 10
25 28 33 37 39 39 35 33 35 35 35 33 34 33 32 28 28 25 22 17 13 13 9 11 11 11 12 9 8 8 8 8
26 28 34 31 35 36 34 35 31 36 32 30 30 31 28 29 24 22 20 17 14 13 10 10 11 10 10 9 7 8 9 9
23 25 31 35 37 35 34 37 28 33 30 28 26 26 27 25 23 21 18 17 16 15 13 13 12 11 11 12 10 9 8 9
18 25 31 32 31 34 30 29 27 30 26 27 25 24 26 22 20 18 19 20 19 17 15 14 17 15 13 13 15 12 10 10
20 25 29 34 34 29 28 22 25 26 25 23 28 25 25 20 18 20 21 23 21 19 19 19 17 17 17 17 18 17 15 16
21 25 30 32 31 29 30 26 27 25 28 28 27 26 24 22 22 24 24 25 23 23 23 21 21 18 16 17 18 20 22 20
25 29 32 32 32 33 26 28 30 29 26 28 28 27 24 25 26 28 27 26 26 27 26 23 21 19 13 5 2 9 22 24
30 34 35 36 32 31 27 30 29 31 30 30 29 28 29 30 31 30 28 29 29 27 25 25 23 20 13 4 2 4 2 11
30 36 38 39 31 32 30 28 23 26 31 30 31 33 33 31 31 30 30 29 30 30 26 28 27 21 17 15 9 4 1 2
37 37 37 36 36 32 33 29 30 28 32 33 35 34 34 35 35 33 32 33 33 31 29 28 30 27 27 13 14 10 8 4
34 34 35 36 36 39 36 34 33 32 34 35 38 36 37 39 37 36 37 36 34 31 30 27 31 31 30 29 25 11 9 7
37 37 36 36 36 39 41 40 41 39 40 39 38 40 40 40 39 41 40 37 31 30 28 30 28 28 28 27 26 24 16 16
40 39 38 39 39 42 42 41 39 43 41 41 41 40 41 42 43 43 39 34 28 28 27 29 28 25 23 25 23 22 20 18

GFSFLT2_925_spd_075.txt.gz
Wind_Speed
21 25 22 15 17 27 28 32 45 44 40 40 40 39 35 35 33 35 35 35 33 30 28 28 27 24 23 24 23 23 25 26
25 24 22 21 16 15 20 52 41 39 38 39 41 35 33 33 32 33 33 32 33 30 28 25 24 22 22 21 22 21 22 25
16 17 18 18 11 17 32 37 41 39 37 38 39 37 33 33 32 32 33 32 32 29 28 26 25 22 20 19 19 20 21 23
17 18 19 24 25 33 42 40 35 35 36 40 39 36 33 31 30 31 32 32 31 29 25 24 24 24 21 18 17 18 18 20
21 24 27 32 34 40 40 41 33 30 37 40 39 36 33 32 31 30 31 30 28 27 24 21 19 19 19 16 16 16 16 18
24 26 26 29 33 36 37 34 34 34 39 39 39 36 33 31 30 29 30 28 24 22 22 20 18 17 17 16 15 14 14 15
24 28 28 30 30 31 32 39 35 34 34 38 37 33 31 29 28 28 27 24 21 21 20 17 16 16 14 13 14 13 13 13
23 27 29 33 32 35 32 32 34 37 34 33 35 37 34 32 29 27 24 21 20 18 17 16 14 13 13 12 12 12 11 11
24 29 30 31 35 37 30 29 32 36 38 36 36 35 34 31 28 26 23 19 19 16 15 15 15 13 12 11 11 11 10 11
24 26 33 29 27 28 29 30 34 38 40 34 33 33 31 30 27 25 22 19 18 16 16 16 14 14 14 12 11 11 10 12
25 24 30 28 26 25 26 30 31 32 34 30 31 32 30 28 28 25 22 20 18 17 17 16 17 15 13 14 13 13 11 12
24 25 31 28 25 22 22 24 27 32 31 30 30 30 28 27 25 25 23 20 19 19 17 16 15 15 14 14 15 15 15 14
20 27 26 30 26 28 24 24 26 31 29 27 28 26 29 26 26 23 22 20 22 20 19 19 16 16 13 14 15 19 20 19
21 23 29 30 28 26 21 25 26 32 29 26 26 27 26 26 26 24 22 21 22 22 22 21 18 16 8 4 2 9 22 25
23 24 28 28 28 24 21 19 23 26 27 28 27 26 26 27 25 24 24 24 26 26 27 26 22 19 20 8 1 4 2 8
27 26 27 30 30 28 25 22 17 24 27 27 28 29 28 28 27 26 28 28 29 29 27 29 26 22 18 19 11 5 3 2
31 28 28 29 32 29 30 22 22 23 25 26 28 29 31 31 31 30 31 32 32 31 32 32 31 27 25 13 14 12 10 3
32 31 32 33 36 36 32 34 29 29 26 30 33 33 33 33 37 35 33 35 35 35 34 34 33 31 30 28 22 9 11 8
30 31 32 35 38 39 38 38 37 38 37 34 35 35 38 40 38 39 38 41 40 38 37 34 32 31 30 32 32 28 20 21
32 32 34 36 38 38 40 41 41 41 41 38 39 41 41 40 40 38 40 40 40 39 37 30 27 30 29 28 26 27 26 25

GFSFLT2_925_spd_078.txt.gz
Wind_Speed
28 25 23 24 26 28 32 34 35 38 38 39 35 39 36 36 36 33 29 27 29 32 30 29 29 28 27 27 28 28 29 29
25 28 24 22 22 23 30 38 38 40 43 40 36 38 36 38 36 33 29 29 30 32 30 27 27 27 26 26 27 26 28 28
23 27 19 13 8 5 18 42 39 35 37 40 39 40 37 35 37 35 31 31 31 31 29 26 26 25 24 23 24 25 25 26
15 22 19 16 7 6 14 32 41 40 39 40 40 39 37 36 35 35 32 30 29 29 28 27 26 25 23 21 21 21 23 24
12 13 16 15 15 24 28 38 44 42 37 40 39 39 38 37 35 34 32 30 30 31 30 27 24 22 21 20 20 20 21 21
13 14 18 19 24 26 32 29 39 43 37 34 39 39 37 36 35 34 30 28 29 28 27 25 22 19 20 19 18 18 19 20
15 19 20 21 24 28 30 35 41 37 37 35 37 37 36 34 33 33 28 26 25 26 25 23 21 21 17 16 17 17 17 18
18 20 22 22 25 28 27 35 39 37 37 39 39 39 36 33 31 30 26 24 24 22 20 20 21 18 17 15 15 15 16 16
20 21 24 24 26 23 24 31 39 35 35 37 37 36 33 31 31 26 23 23 22 19 19 20 19 17 16 16 14 15 14 14
21 22 25 20 25 23 24 25 32 33 34 36 36 33 34 34 28 27 23 22 20 20 21 19 17 16 16 15 13 13 12 13
20 21 24 22 22 22 23 22 23 28 27 28 26 29 30 29 30 27 22 20 19 19 19 18 16 15 12 11 11 12 11 12
21 21 25 25 21 20 22 21 19 30 27 24 26 29 28 27 26 25 22 20 21 18 17 16 16 13 11 10 11 12 12 13
22 24 27 28 26 22 24 25 25 26 34 35 28 29 26 24 25 24 22 23 20 18 17 16 15 14 10 9 12 15 17 18
21 22 28 29 28 24 17 25 27 31 31 32 30 30 27 27 27 25 25 24 22 23 21 17 14 16 8 3 1 6 20 23
21 22 24 27 25 25 18 23 19 27 32 30 27 26 27 26 25 25 25 26 26 26 24 22 19 19 16 7 1 4 2 7
23 24 25 25 27 31 25 25 18 20 31 31 26 27 26 26 27 28 28 30 27 28 24 25 22 21 19 21 13 6 3 2
27 28 25 29 29 32 31 26 28 27 30 29 29 29 30 29 28 31 30 30 30 27 26 27 28 28 26 14 20 15 13 6
29 28 27 29 34 33 34 33 30 28 31 32 33 33 32 32 32 32 31 30 29 29 30 30 32 33 31 28 21 10 14 9
29 30 29 31 34 36 38 38 33 33 35 36 34 33 34 35 32 32 32 32 32 32 33 33 34 34 34 33 32 32 26 19
32 32 30 34 36 36 37 35 36 34 32 32 33 34 34 32 32 30 32 33 35 34 35 36 37 34 34 36 37 35 32 30

GFSFLT2_925_spd_081.txt.gz
Wind_Speed
20 29 30 28 24 21 24 22 24 28 34 37 39 39 41 40 37 34 32 32 30 29 26 27 27 28 29 29 29 27 23 23
22 27 30 27 22 23 25 26 31 36 41 39 40 43 41 40 38 32 32 32 31 30 28 28 27 27 29 29 28 26 21 23
21 24 25 25 20 20 23 26 34 38 39 44 42 41 38 38 35 33 32 33 32 30 29 29 29 27 27 28 26 19 20 19
18 26 20 15 17 18 22 29 33 39 39 47 39 41 40 37 35 32 31 33 32 30 29 29 26 22 23 24 18 19 18 18
11 16 19 16 14 14 18 17 33 36 34 41 40 39 38 38 36 34 31 32 27 27 28 21 21 21 20 18 19 17 17 17
8 11 15 16 13 13 14 21 33 38 39 42 42 37 36 37 39 36 35 30 26 25 22 21 23 23 22 22 19 16 16 16
10 11 12 12 16 15 13 30 34 36 36 36 41 40 37 41 39 36 32 31 31 28 26 24 21 21 20 19 18 16 17 15
12 13 12 14 17 11 21 22 41 34 32 39 42 44 43 41 36 31 30 30 28 27 27 22 18 18 19 17 16 15 15 14
15 14 14 16 18 16 26 32 34 31 35 37 40 40 39 38 33 29 25 27 25 26 24 21 19 16 16 17 16 16 15 16
17 17 18 18 18 18 25 35 37 32 29 32 39 40 35 36 34 29 28 25 22 20 21 20 19 17 16 14 13 15 16 16
19 20 20 18 20 16 31 33 30 39 36 33 32 35 36 37 38 33 26 21 19 20 19 19 18 16 15 15 14 15 15 16
22 23 25 21 22 18 20 30 31 29 34 36 33 32 36 36 35 29 21 23 21 20 19 19 15 16 12 12 13 15 15 17
21 23 27 25 26 23 23 23 28 27 26 25 23 27 30 30 25 17 23 25 24 21 22 19 16 16 10 7 9 15 18 17
21 24 28 28 26 22 23 24 24 28 24 19 26 24 23 23 22 29 30 25 23 24 23 16 12 20 7 5 4 8 17 19
22 23 27 28 26 25 22 23 22 26 27 24 30 20 23 24 27 28 28 26 24 24 25 22 15 17 17 4 3 5 2 6
20 24 28 29 32 30 28 31 23 28 34 33 38 30 26 30 31 29 28 27 26 27 28 26 19 14 18 21 14 4 4 3
24 23 22 27 33 33 33 25 25 31 32 36 38 37 34 34 33 30 29 28 28 28 27 28 28 21 19 12 15 11 10 9
25 26 24 25 28 30 30 29 25 28 33 35 32 32 35 34 31 31 31 30 29 29 31 30 31 30 23 24 17 9 11 13
28 28 27 27 28 29 30 26 27 26 31 32 29 28 28 31 31 30 29 29 31 31 31 32 33 32 32 26 29 31 24 23
29 29 28 28 30 30 30 30 27 23 24 24 29 30 31 30 30 31 32 33 33 34 34 32 29 31 28 25 26 32 29 29

GFSFLT2_925_spd_084.txt.gz
Wind_Speed
20 23 22 21 16 13 20 23 19 17 25 32 34 39 39 39 37 37 33 29 28 27 26 24 24 25 27 26 25 18 19 20
17 25 22 18 15 19 15 15 19 24 25 29 28 33 38 39 38 36 34 30 30 28 26 25 25 26 27 27 26 21 19 19
14 23 29 27 16 17 21 22 22 20 29 29 32 32 35 38 32 35 34 33 30 30 26 26 26 27 28 25 19 16 17 16
12 19 27 26 17 19 20 20 27 29 32 35 39 36 34 29 32 35 36 33 30 30 28 27 23 20 20 17 13 14 15 16
11 18 23 21 21 19 16 16 21 25 34 50 47 41 36 30 31 31 34 30 26 26 27 20 18 18 19 11 15 13 13 15
9 12 16 17 14 14 15 12 15 20 15 30 44 43 37 30 30 28 31 28 27 24 21 16 17 15 14 14 14 12 13 14
7 10 13 14 14 12 12 12 17 28 28 35 45 35 32 31 27 28 29 26 25 23 18 17 16 15 14 14 13 12 13 14
8 9 10 7 8 12 13 17 29 38 37 41 42 38 32 30 26 24 25 26 22 21 20 18 16 14 14 13 12 13 13 13
9 9 8 7 7 11 12 24 31 39 39 39 38 39 36 32 26 25 25 24 22 19 18 17 15 14 12 12 11 11 11 13
10 9 10 8 11 19 25 24 35 35 38 40 31 34 37 30 31 32 23 22 22 17 17 16 15 14 13 12 11 11 11 11
11 11 12 11 15 24 32 35 39 35 31 27 26 31 35 34 33 30 28 26 22 16 15 15 14 13 13 11 11 12 12 13
12 13 14 14 17 29 30 29 32 36 24 20 27 33 33 27 27 27 22 19 17 16 16 13 13 12 10 11 10 11 12 13
16 16 15 18 19 26 27 28 26 29 27 26 30 28 24 26 25 26 20 21 21 19 15 14 10 9 9 9 9 11 13 13
20 21 22 22 21 21 25 29 27 27 28 30 31 23 25 25 22 23 25 22 17 14 14 14 12 14 9 10 5 11 17 19
21 22 26 23 23 26 25 29 26 28 30 31 30 24 24 23 29 22 26 18 16 17 16 15 14 14 16 10 5 6 8 13
20 22 25 26 26 26 28 35 30 29 30 31 32 25 23 23 23 21 21 18 18 19 19 18 16 16 16 20 16 10 5 4
22 23 24 26 26 30 32 27 30 25 25 27 32 28 21 22 21 22 18 21 20 19 18 19 18 19 17 15 17 18 15 13
25 25 24 29 30 29 31 32 28 25 25 30 34 29 24 19 21 19 19 19 18 17 18 18 20 20 20 19 19 15 15 16
26 26 26 27 31 30 30 27 31 31 32 30 32 32 28 22 18 20 21 19 19 19 18 19 21 22 22 24 23 24 22 15
27 28 26 28 30 30 30 31 29 29 31 32 32 33 32 24 21 23 21 21 22 20 20 22 21 23 25 26 26 26 22 23

GFSFLT2_925_spd_087.txt.gz
Wind_Speed
8 11 13 14 17 16 22 29 23 29 33 29 28 38 40 34 35 34 32 29 28 27 27 27 26 27 28 22 21 12 17 17
8 11 10 11 11 16 15 17 23 25 31 23 21 38 39 35 34 34 32 29 28 26 27 27 27 27 26 22 18 17 17 18
8 11 14 12 12 13 15 18 16 16 25 22 19 31 40 36 31 37 31 28 28 27 28 27 28 27 25 26 17 15 16 16
6 10 13 16 16 12 14 16 17 20 19 17 21 27 31 30 33 35 32 29 29 28 27 26 24 23 22 14 7 13 14 14
7 9 13 13 15 11 12 12 21 26 20 22 27 32 26 27 34 32 32 29 26 24 28 21 21 22 18 9 14 11 15 16
6 8 12 15 15 18 12 12 16 21 26 29 28 34 33 31 30 28 26 28 26 26 21 20 19 19 12 13 13 13 15 16
7 7 9 13 12 12 14 14 11 19 23 29 32 40 39 34 33 28 26 26 25 24 19 20 18 17 13 14 12 12 14 16
8 6 5 6 10 14 11 12 12 18 23 31 46 44 39 36 29 29 25 26 25 21 20 19 17 16 15 14 12 14 14 15
9 7 5 6 7 8 12 11 16 25 33 33 43 52 40 38 28 27 24 24 23 19 20 17 17 16 15 14 13 13 13 14
10 8 7 6 5 8 10 15 22 37 41 37 41 43 37 34 24 21 24 22 21 20 19 18 16 16 15 14 13 13 13 13
11 10 10 7 11 15 21 28 25 32 37 37 41 38 35 28 21 21 23 23 20 20 19 17 16 16 15 13 13 13 13 13
12 13 12 10 20 24 27 30 32 32 31 34 38 32 37 27 27 30 25 21 18 19 17 16 16 15 14 13 12 11 12 13
15 16 17 15 23 23 26 28 28 30 39 40 34 27 31 27 29 26 25 23 21 20 18 16 14 12 11 11 10 10 11 14
17 17 20 20 23 25 25 28 28 29 30 29 28 29 28 24 26 29 29 24 23 20 18 17 14 14 13 12 6 9 16 17
19 19 20 19 26 29 25 25 23 22 26 28 26 29 29 21 23 27 25 22 21 18 16 16 15 16 12 6 3 4 6 15
19 20 22 22 29 29 33 31 26 25 28 29 27 27 21 23 21 19 24 21 15 19 18 16 14 13 11 13 12 10 3 3
22 21 22 24 25 30 31 30 27 24 24 28 27 21 22 26 20 22 18 17 21 19 16 14 14 13 13 11 13 13 14 10
23 24 25 26 28 30 32 31 30 26 26 25 25 23 27 24 21 21 17 19 20 19 15 15 17 15 15 15 15 12 13 14
25 27 27 28 30 30 32 33 33 31 33 29 28 27 24 26 27 22 21 20 18 17 17 19 20 19 19 18 18 19 18 17
26 29 28 30 31 30 32 30 35 30 28 31 31 32 34 31 28 25 23 22 22 20 20 22 22 22 22 22 23 23 23 22